Location: *
(41.3833°S, 177.8333°W)
Time: 21:15:21
(UTC+00:00)

STARLINK-1221 - Pass Details

Date: 01 April 2020
Orbit: 376 x 384 km, 53.0° (Epoch: 31 May)

Event Time Altitude Azimuth Distance (km) Brightness Sun altitude
Exits shadow 17:45:49 - 289° (WNW) 1,803 5.7 -5.0°
Reaches altitude 10° 17:46:49 10° 284° (WNW) 1,406 5.1 -4.8°
Maximum altitude 17:49:48 40° 212° (SSW) 586 3.5 -4.2°
Drops below altitude 10° 17:52:49 10° 140° (SE) 1,419 6.3 -3.7°
Sets 17:54:58 0° 132° (SE) 2,280 7.5 -3.3°
